Date_and_time,latitude,longitude,wind_speed,RelWindDirFrom,WindDirFrom,air_pressure,air_temperature,relative_humidity,Temp,platform_speed_wrt_ground,air_pressure_at_mean_sea_level,platform_orientation
2018-10-09 23:40,53.1827466666667,-99.2543983333333,4.3,7.7,38,1003.02,2.4,61,6.29,0.0,1031.04,270.0
2018-10-09 23:50,53.182745,-99.2544,4.5,7.9,35,1003.01,2.4,61,6.27,0.0,1031.03,270.0
2018-10-10 00:00,53.1827333333333,-99.254405,5.3,7.6,27,1002.93,2.4,62,6.27,0.0,1030.96,360.0
2018-10-10 00:10,53.18274,-99.2544,5.1,8.0,35,1002.94,2.4,63,6.25,0.0,1030.97,360.0
2018-10-10 00:20,53.182735,-99.2544016666667,4.9,7.7,33,1003.03,2.4,63,6.24,0.0,1031.06,360.0
2018-10-10 00:30,53.1827366666667,-99.2544016666667,4.2,7.0,36,1003.04,2.4,63,6.26,0.0,1031.07,360.0
2018-10-10 00:40,53.1827383333333,-99.2544033333333,7.0,11.0,15,1003.11,2.5,63,6.25,0.0,1031.14,360.0
2018-10-10 00:50,53.1827383333333,-99.2544066666667,8.2,10.9,17,1003.11,2.4,61,6.23,0.0,1031.15,360.0
2018-10-10 01:00,53.1827366666667,-99.254405,8.7,11.6,19,1003.18,2.4,59,6.22,0.0,1031.23,90.0
2018-10-10 01:10,53.1827383333333,-99.2544066666667,9.4,12.6,15,1003.20,2.4,60,6.22,0.0,1031.25,90.0
2018-10-10 01:20,53.1827383333333,-99.2544066666667,7.9,11.3,16,1003.40,2.3,59,6.21,0.0,1031.45,90.0
2018-10-10 01:30,53.18274,-99.2544066666667,8.2,11.2,18,1003.53,2.2,58,6.19,0.0,1031.60,90.0
2018-10-10 01:40,53.18274,-99.2544066666667,8.6,11.3,17,1003.51,2.1,58,6.17,0.0,1031.58,90.0
2018-10-10 01:50,53.18274,-99.2544066666667,8.2,10.9,16,1003.53,2.0,60,6.17,0.0,1031.61,90.0
2018-10-10 02:00,53.1827383333333,-99.2544233333333,8.7,11.7,17,1003.47,2.0,62,6.17,0.0,1031.54,296.6
2018-10-10 02:10,53.18274,-99.254415,8.3,14.1,21,1003.49,1.9,62,6.17,0.0,1031.57,296.6
2018-10-10 02:20,53.18274,-99.2544166666667,9.1,13.7,23,1003.59,1.9,61,6.17,0.0,1031.68,296.6
2018-10-10 02:30,53.18274,-99.2544183333333,8.5,13.6,20,1003.61,2.0,62,6.17,0.0,1031.69,296.6
2018-10-10 02:40,53.1827383333333,-99.2544166666667,7.0,12.1,30,1003.62,1.9,61,6.17,0.0,1031.71,296.6
2018-10-10 02:50,53.1827566666667,-99.2544066666667,6.2,10.1,35,1003.70,1.9,61,6.16,0.0,1031.79,296.6
2018-10-10 03:00,53.1827483333333,-99.2544066666667,9.0,13.5,21,1003.64,1.8,63,6.15,0.0,1031.73,360.0
2018-10-10 03:10,53.1827466666667,-99.2544066666667,9.7,14.3,15,1003.71,1.8,64,6.12,0.0,1031.81,360.0
2018-10-10 03:20,53.1827466666667,-99.2544216666667,12.3,16.5,14,1003.61,1.7,65,6.09,0.0,1031.71,360.0
2018-10-10 03:30,53.1827433333333,-99.2544133333333,11.5,15.5,4,1003.66,1.7,67,6.07,0.0,1031.77,360.0
2018-10-10 03:40,53.1827433333333,-99.2544083333333,10.9,14.5,6,1003.71,1.4,68,6.07,0.0,1031.84,360.0
2018-10-10 03:50,53.1827416666667,-99.25441,11.7,14.8,6,1003.57,1.4,67,6.06,0.0,1031.70,360.0
2018-10-10 04:00,53.18274,-99.2544116666667,11.8,14.5,8,1003.48,1.2,68,6.06,0.0,1031.62,360.0
2018-10-10 04:10,53.1827416666667,-99.2544166666667,12.0,15.4,15,1003.43,1.2,66,6.05,0.0,1031.57,360.0
2018-10-10 04:20,53.1827416666667,-99.2544166666667,11.6,15.1,17,1003.34,1.2,65,6.05,0.0,1031.47,360.0
2018-10-10 04:30,53.1827416666667,-99.2544166666667,10.4,15.0,354,1003.28,1.9,66,6.02,0.0,1031.38,360.0
2018-10-10 04:40,53.1827416666667,-99.254415,10.6,15.3,11,1003.32,1.3,65,6.01,0.0,1031.46,360.0
2018-10-10 04:50,53.1827416666667,-99.254415,10.7,16.3,15,1003.35,1.1,64,6.01,0.0,1031.49,360.0
2018-10-10 05:00,53.18274,-99.2544083333333,8.5,11.4,21,1003.49,1.0,61,6.01,0.0,1031.65,90.0
2018-10-10 05:10,53.1827516666667,-99.2544116666667,9.2,13.0,13,1003.45,0.9,62,6.02,0.0,1031.61,90.0
2018-10-10 05:20,53.1827516666667,-99.25441,11.1,14.6,12,1003.37,0.8,64,6.00,0.0,1031.54,90.0
2018-10-10 05:30,53.182755,-99.2544033333333,8.8,11.7,359,1003.45,1.1,64,5.99,0.0,1031.62,90.0
2018-10-10 05:40,53.182715,-99.2544066666667,8.3,11.4,350,1003.46,1.9,63,6.00,0.0,1031.60,90.0
2018-10-10 05:50,53.1827366666667,-99.25441,8.9,12.0,359,1003.46,1.1,65,6.00,0.0,1031.64,90.0
2018-10-10 06:00,53.18274,-99.254405,10.3,13.3,357,1003.43,0.9,65,6.00,0.0,1031.62,135.7
2018-10-10 06:10,53.18274,-99.2544066666667,10.6,12.8,4,1003.30,0.6,66,6.02,0.0,1031.50,135.7
2018-10-10 06:20,53.18274,-99.2544083333333,12.6,16.2,5,1003.16,0.5,68,6.04,0.0,1031.33,135.7
2018-10-10 06:30,53.1827366666667,-99.2544116666667,13.7,16.8,2,1003.00,0.5,68,6.03,0.0,1031.19,135.7
2018-10-10 06:40,53.1827366666667,-99.2544083333333,12.6,15.4,2,1003.07,0.4,67,6.01,0.0,1031.28,135.7
2018-10-10 06:50,53.1827366666667,-99.25441,12.6,16.5,359,1003.08,0.5,68,5.98,0.0,1031.29,135.7
2018-10-10 07:00,53.1827383333333,-99.2544233333333,12.0,15.5,7,1003.18,0.3,67,5.96,0.0,1031.41,270.0
2018-10-10 07:10,53.182755,-99.25439,12.5,15.5,4,1003.16,0.2,67,5.95,0.0,1031.41,270.0
2018-10-10 07:20,53.1827483333333,-99.254405,11.1,14.5,360,1003.22,0.3,67,5.93,0.0,1031.44,270.0
2018-10-10 07:30,53.1827466666667,-99.2544083333333,10.6,14.6,4,1003.21,0.3,68,5.93,0.0,1031.39,270.0
2018-10-10 07:40,53.1827433333333,-99.2544033333333,12.2,15.0,5,1003.11,0.2,68,5.94,0.0,1031.33,270.0
2018-10-10 07:50,53.1827416666667,-99.254405,12.0,15.6,0,1003.09,0.2,67,5.94,0.0,1031.32,270.0
2018-10-10 08:00,53.1827416666667,-99.254405,11.3,15.5,351,1003.02,0.5,67,5.93,0.0,1031.26,90.0
2018-10-10 08:10,53.1827383333333,-99.2544,10.0,13.6,344,1003.05,1.4,65,5.93,0.0,1031.24,90.0
2018-10-10 08:20,53.1827383333333,-99.2544016666667,10.4,13.6,350,1003.05,0.8,66,5.93,0.0,1031.27,90.0
2018-10-10 08:30,53.1827383333333,-99.254405,9.1,11.7,344,1002.99,1.2,66,5.92,0.0,1031.20,90.0
2018-10-10 08:40,53.1827383333333,-99.2543916666667,9.7,12.9,343,1002.81,1.4,65,5.90,0.0,1031.00,90.0
2018-10-10 08:50,53.1827416666667,-99.2544033333333,9.1,12.3,339,1002.72,1.8,65,5.88,0.0,1030.90,90.0
2018-10-10 09:00,53.182745,-99.2544016666667,11.2,14.2,354,1002.58,0.8,69,5.86,0.0,1030.81,33.5
2018-10-10 09:10,53.182745,-99.2544033333333,12.1,16.3,358,1002.49,0.3,69,5.85,0.0,1030.73,33.5
2018-10-10 09:20,53.1827433333333,-99.2544033333333,10.9,14.5,354,1002.47,0.3,69,5.84,0.0,1030.71,33.5
2018-10-10 09:30,53.1827433333333,-99.2544016666667,11.0,14.6,346,1002.52,0.9,68,5.84,0.0,1030.75,33.5
2018-10-10 09:40,53.1827416666667,-99.2544016666667,11.2,15.2,346,1002.51,0.7,67,5.83,0.0,1030.74,33.5
2018-10-10 09:50,53.1827416666667,-99.2544033333333,11.0,15.8,347,1002.57,1.0,67,5.82,0.0,1030.77,33.5
2018-10-10 10:00,53.1827416666667,-99.254405,11.4,15.1,353,1002.60,0.3,68,5.83,0.0,1030.79,90.0
2018-10-10 10:10,53.1827416666667,-99.254405,11.1,15.1,356,1002.57,0.1,68,5.83,0.0,1030.80,90.0
2018-10-10 10:20,53.18274,-99.2544016666667,10.4,14.4,342,1002.51,0.8,67,5.80,0.0,1030.68,90.0
2018-10-10 10:30,53.18274,-99.2544016666667,12.1,16.1,353,1002.31,0.7,67,5.78,0.0,1030.47,90.0
2018-10-10 10:40,53.18274,-99.2544,11.1,15.9,353,1002.27,0.2,69,5.79,0.0,1030.43,90.0
2018-10-10 10:50,53.18274,-99.2544,12.6,16.4,2,1002.21,-0.1,68,5.77,0.0,1030.45,90.0
2018-10-10 11:00,53.18274,-99.2544,13.8,16.9,359,1002.22,-0.1,69,5.76,0.0,1030.48,90.0
2018-10-10 11:10,53.18274,-99.2544016666667,12.2,15.9,357,1002.14,-0.0,70,5.76,0.0,1030.40,90.0
2018-10-10 11:20,53.1827483333333,-99.2544116666667,12.0,16.0,354,1002.20,0.1,69,5.77,0.0,1030.41,90.0
2018-10-10 11:30,53.1827366666667,-99.254405,11.8,18.0,346,1002.19,0.6,67,5.76,0.0,1030.38,90.0
2018-10-10 11:40,53.1827333333333,-99.2543983333333,12.6,16.4,353,1002.18,0.0,68,5.75,0.0,1030.39,90.0
2018-10-10 11:50,53.1827366666667,-99.2543983333333,11.4,14.2,341,1002.28,1.5,66,5.74,0.0,1030.46,90.0
2018-10-10 12:00,53.1827383333333,-99.2543983333333,12.0,15.3,347,1002.28,2.4,64,5.76,0.0,1030.42,135.7
2018-10-10 12:10,53.1827383333333,-99.2544,12.4,15.8,358,1002.28,0.1,68,5.75,0.0,1030.50,135.7
2018-10-10 12:20,53.1826883333333,-99.2548483333333,11.3,15.7,348,1002.27,0.7,67,5.72,0.1,1030.46,135.7
2018-10-10 12:30,53.19651,-99.2538166666667,16.6,21.3,353,1001.54,-0.2,69,5.73,5.0,1029.79,135.7
2018-10-10 12:40,53.2080316666667,-99.22062,17.3,22.8,9,1001.68,-0.5,69,5.80,8.3,1029.97,135.7
2018-10-10 12:50,53.2206566666667,-99.1743,20.5,23.8,12,1001.56,-0.5,70,5.83,11.0,1029.84,135.7
2018-10-10 13:00,53.2330533333333,-99.128845,21.2,26.6,16,1001.30,-0.2,72,5.85,10.8,1029.55,56.2
2018-10-10 13:10,53.2460216666667,-99.08333,18.4,23.9,41,1001.15,0.1,69,6.49,10.9,1029.38,56.2
2018-10-10 13:20,53.2491216666667,-99.0677266666667,14.1,21.1,32,1001.61,0.1,67,6.58,3.5,1029.82,56.2
2018-10-10 13:30,53.2529133333333,-99.0574833333333,13.4,18.2,43,1001.53,0.1,67,6.70,2.6,1029.77,56.2
2018-10-10 13:40,53.2565266666667,-99.0456483333333,12.8,18.1,41,1001.62,0.2,67,6.91,2.9,1029.79,56.2
2018-10-10 13:50,53.25967,-99.0333066666667,13.4,17.8,22,1001.63,0.1,68,7.08,2.9,1029.75,56.2
2018-10-10 14:00,53.2629033333333,-99.02463,13.6,17.7,17,1001.53,0.1,66,7.22,2.2,1029.76,59.7
2018-10-10 14:10,53.264,-99.0229466666667,8.1,11.5,18,1001.75,0.1,67,7.31,0.5,1029.97,59.7
2018-10-10 14:20,53.26262,-99.024795,11.9,16.1,30,1001.46,0.2,70,7.33,0.6,1029.71,59.7
2018-10-10 14:30,53.2626683333333,-99.0248716666667,11.4,18.7,23,1001.45,0.1,69,7.34,0.0,1029.72,59.7
2018-10-10 14:40,53.2626133333333,-99.0247933333333,10.1,14.7,19,1001.52,-0.1,68,7.35,0.0,1029.80,59.7
2018-10-10 14:50,53.2598616666667,-98.9971833333333,15.5,23.0,50,1001.23,-0.1,70,7.37,6.0,1029.48,59.7
2018-10-10 15:00,53.2518233333333,-98.9479266666667,18.3,23.1,64,1000.91,-0.1,69,7.46,11.0,1029.14,69.2
2018-10-10 15:10,53.2455433333333,-98.898115,18.4,23.9,65,1000.76,-0.1,67,7.53,11.0,1028.99,69.2
2018-10-10 15:20,53.2383616666667,-98.848495,18.9,23.4,67,1000.67,-0.2,69,7.57,11.0,1028.90,69.2
2018-10-10 15:30,53.23131,-98.798845,17.9,23.7,60,1000.81,-0.2,68,7.63,11.0,1029.04,69.2
2018-10-10 15:40,53.22378,-98.7494466666667,19.2,25.1,61,1000.68,-0.3,69,7.68,11.0,1028.91,69.2
2018-10-10 15:50,53.2161483333333,-98.7000616666667,16.9,23.0,60,1000.78,-0.3,69,7.74,11.0,1029.02,69.2
2018-10-10 16:00,53.2101666666667,-98.669595,15.2,24.4,66,1000.62,-0.4,69,7.79,6.9,1028.86,94.6
2018-10-10 16:10,53.20836,-98.65866,9.9,15.8,42,1001.07,-0.5,67,7.80,2.4,1029.31,94.6
2018-10-10 16:20,53.2072783333333,-98.647375,14.5,18.7,33,1000.98,-0.4,69,7.81,2.5,1029.23,94.6
2018-10-10 16:30,53.2066833333333,-98.63591,10.6,17.2,44,1000.87,-0.5,69,7.82,2.5,1029.14,94.6
2018-10-10 16:40,53.2043716666667,-98.618085,13.8,20.9,44,1000.71,-0.6,71,7.83,3.9,1028.97,94.6
2018-10-10 16:50,53.2044833333333,-98.6168633333333,11.3,15.7,37,1000.51,-0.6,71,7.85,0.3,1028.76,94.6
2018-10-10 17:00,53.2044833333333,-98.6168666666667,11.5,18.4,41,1000.35,-0.7,70,7.85,0.0,1028.61,103.3
2018-10-10 17:10,53.2044983333333,-98.6168833333333,12.3,17.2,28,1000.25,-0.7,71,7.85,0.0,1028.52,103.3
2018-10-10 17:20,53.2004866666667,-98.59451,14.5,22.8,54,1000.00,-0.9,69,7.86,5.0,1028.27,103.3
2018-10-10 17:30,53.1862733333333,-98.5493533333333,17.1,23.1,68,1000.05,-1.0,69,7.94,11.0,1028.32,103.3
2018-10-10 17:40,53.1720483333333,-98.5042183333333,15.3,23.1,67,1000.01,-1.1,70,8.06,11.0,1028.29,103.3
2018-10-10 17:50,53.15757,-98.4593866666667,18.4,22.7,65,999.75,-0.9,72,8.12,11.0,1028.02,103.3
2018-10-10 18:00,53.1435283333333,-98.4140183333333,16.3,21.9,62,999.65,-1.0,71,8.12,11.0,1027.92,108.5
2018-10-10 18:10,53.1290416666667,-98.368965,16.0,21.6,61,999.59,-0.9,70,8.14,11.0,1027.85,108.5
2018-10-10 18:20,53.1145433333333,-98.3238816666667,17.2,23.0,60,999.40,-0.9,72,8.19,11.1,1027.66,108.5
2018-10-10 18:30,53.1001816666667,-98.27866,16.0,20.4,54,999.30,-1.0,73,8.24,11.1,1027.58,108.5
2018-10-10 18:40,53.0895133333333,-98.2477016666667,14.1,20.3,53,999.08,-1.0,75,8.30,7.7,1027.34,108.5
2018-10-10 18:50,53.0848233333333,-98.23792,16.6,19.9,38,999.05,-1.0,79,8.35,2.7,1027.32,108.5
2018-10-10 19:00,53.0804483333333,-98.2272033333333,15.9,20.0,46,998.94,-1.1,76,8.37,2.8,1027.21,115.9
2018-10-10 19:10,53.0766166666667,-98.2160866666667,13.8,18.5,44,998.76,-1.1,73,8.39,2.8,1027.04,115.9
2018-10-10 19:20,53.0760433333333,-98.2010933333333,16.2,22.7,48,998.22,-1.1,71,8.42,3.2,1026.49,115.9
2018-10-10 19:30,53.07572,-98.2013633333333,13.5,17.6,45,998.21,-1.1,71,8.43,0.1,1026.48,115.9
2018-10-10 19:40,53.0757,-98.201325,13.1,17.0,48,998.21,-1.2,71,8.43,0.0,1026.47,115.9
2018-10-10 19:50,53.06026,-98.2043133333333,10.9,19.4,60,998.33,-1.3,69,8.43,5.6,1026.61,115.9
2018-10-10 20:00,53.0296433333333,-98.2125966666667,5.1,9.4,52,998.52,-1.4,69,8.45,11.2,1026.81,125.6
2018-10-10 20:10,52.998805,-98.21909,1.7,7.9,27,998.41,-1.2,68,8.44,11.2,1026.68,125.6
2018-10-10 20:20,52.9679783333333,-98.2250116666667,5.8,10.4,76,998.27,-1.1,70,8.44,11.2,1026.54,125.6
2018-10-10 20:30,52.9371183333333,-98.2301866666667,5.6,11.7,78,998.17,-1.1,71,8.44,11.2,1026.43,125.6
2018-10-10 20:40,52.906575,-98.2376616666667,6.8,11.3,86,998.11,-1.1,68,8.40,11.1,1026.37,125.6
2018-10-10 20:50,52.895805,-98.2412983333333,8.6,13.2,56,997.94,-1.2,67,8.39,4.0,1026.21,125.6
2018-10-10 21:00,52.88799,-98.2444766666667,8.6,12.2,42,997.82,-0.9,67,8.38,2.9,1026.07,158.2
2018-10-10 21:10,52.880105,-98.2457683333333,9.5,13.1,47,997.76,-0.9,66,8.38,2.9,1026.00,158.2
2018-10-10 21:20,52.8721833333333,-98.2481566666667,8.0,13.5,32,997.67,-1.0,65,8.37,2.9,1025.92,158.2
2018-10-10 21:30,52.8659566666667,-98.2507483333333,10.8,16.8,21,997.43,-0.7,68,8.38,2.3,1025.66,158.2
2018-10-10 21:40,52.865915,-98.2506733333333,11.7,16.4,21,997.11,-0.5,68,8.39,0.0,1025.33,158.2
2018-10-10 21:50,52.8659083333333,-98.2507016666667,10.5,16.9,25,997.10,-0.6,67,8.38,0.0,1025.33,158.2
2018-10-10 22:00,52.8660116666667,-98.250585,12.8,19.2,31,996.87,-0.6,67,8.44,0.0,1025.08,183.7
2018-10-10 22:10,52.8459966666667,-98.2607816666667,2.8,19.3,34,997.12,-0.5,68,8.38,7.5,1025.33,183.7
2018-10-10 22:20,52.8157933333333,-98.2716866666667,1.2,9.5,60,997.13,-0.3,69,8.38,11.1,1025.33,183.7
2018-10-10 22:30,52.78478,-98.27794,6.0,9.9,57,997.04,-0.6,68,8.40,11.2,1025.25,183.7
2018-10-10 22:40,52.7543016666667,-98.2879383333333,3.0,7.7,53,996.98,-0.5,69,8.36,11.2,1025.19,183.7
2018-10-10 22:50,52.723935,-98.2986466666667,1.7,7.8,299,996.92,0.0,67,8.33,11.2,1025.08,183.7
2018-10-10 23:00,52.6933916666667,-98.308735,3.6,8.2,300,996.74,0.0,66,8.25,11.2,1024.90,189.8
2018-10-10 23:10,52.6761283333333,-98.3160483333333,5.7,17.3,354,996.53,-0.2,68,8.07,6.4,1024.70,189.8
2018-10-10 23:20,52.67614,-98.316315,12.3,17.6,21,996.14,-0.2,68,7.83,0.1,1024.28,189.8
2018-10-10 23:30,52.6760833333333,-98.3161333333333,14.1,19.3,22,995.93,-0.2,68,7.80,0.0,1024.06,189.8
2018-10-10 23:40,52.676085,-98.316245,15.1,20.6,5,995.88,-0.3,66,7.78,0.0,1024.01,189.8
